Skip Page Navigation
NASA JPL Caltech
NASA Logo - Jet Propulsion Laboratory + View the NASA Portal
+ Center for Near-Earth Object Studies
JPL Home Earth Solar System Stars & Galaxies Technology
JPL Solar System Dynamics
BODIES ORBITS EPHEMERIDES TOOLS PHYSICAL DATA DISCOVERY FAQ SITE MAP
IMPORTANT: The SSD Announcement email list is now available. Major changes are coming in the near future, including possible hostname and/or URL changes. To be notified of such changes, subscribe to this email list.

Please visit this page for more details.


JPL Small-Body Database Browser
Search: [ help ]  
215462 (2002 QF63)
Classification: Main-belt Asteroid          SPK-ID: 2215462
Ephemeris | Orbit Diagram | Orbital Elements | Mission Design | Physical Parameters | Discovery Circumstances ]

[ show orbit diagram ]
Orbital Elements at Epoch 2458600.5 (2019-Apr-27.0) TDB
Reference: JPL 13 (heliocentric ecliptic J2000)
 Element Value Uncertainty (1-sigma)   Units 
e .1600471493493409 5.1111e-08  
a 2.265787307242088 1.4189e-08 au
q 1.903154507686073 1.1947e-07 au
i 4.781575362470608 5.2895e-06 deg
node 164.1218631287396 6.5494e-05 deg
peri 241.5107136609079 6.7353e-05 deg
M 262.3675166770605 1.5566e-05 deg
tp 2458938.346147822739
(2020-Mar-29.84614782)
5.4374e-05 TDB
period 1245.739215849788
3.41
1.1702e-05
3.204e-08
d
yr
n .2889850423103394 2.7146e-09 deg/d
Q 2.628420106798104 1.646e-08 au
  Orbit Determination Parameters
   # obs. used (total)      232  
   data-arc span      6286 days (17.21 yr)  
   first obs. used      2002-08-16  
   last obs. used      2019-11-01  
   planetary ephem.      DE431  
   SB-pert. ephem.      SB431-N16  
   condition code      0  
   norm. resid. RMS      .6061  
   source      ORB  
   producer      Otto Matic  
   solution date      2019-Nov-07 23:58:52  

Additional Information
 Earth MOID = .917071 au 
 Jupiter MOID = 2.75936 au 
 T_jup = 3.595 
[ hide covariance matrix ]
Orbital Elements at Epoch 2457213.5 (2015-Jul-10.0) TDB
Reference: JPL 13 (heliocentric ecliptic J2000)
 Element Value Uncertainty (1-sigma)   Units 
e .1607409755314519 5.1143e-08  
q 1.90120129896321 1.1963e-07 au
tp 2457690.920314251786
(2016-Oct-29.42031425)
5.2947e-05 TDB
node 164.2082277267698 6.5437e-05 deg
peri 241.0609730216065 6.7278e-05 deg
i 4.783754273041196 5.2937e-06 deg
  Orbit Determination Parameters
   # obs. used (total)      232  
   data-arc span      6286 days (17.21 yr)  
   first obs. used      2002-08-16  
   last obs. used      2019-11-01  
   planetary ephem.      DE431  
   SB-pert. ephem.      SB431-N16  
   condition code      0  
   norm. resid. RMS      .6061  
   source      ORB  
   producer      Otto Matic  
   solution date      2019-Nov-07 23:58:52  

Additional Information
 Jupiter MOID = 2.75936 au 
 T_jup = 3.595 
Orbit Covariance (6×6)
  e q tp node peri i
e 2.615582039455648E-15 -6.090495395832572E-15 -7.664483126109577E-14 1.431339687704221E-14 5.026456398698928E-15 -2.269795682740587E-15
q -6.090495395832572E-15 1.431196837948073E-14 1.659561456250103E-13 -3.174195017618534E-14 -3.012088049441489E-14 5.616424446046541E-15
tp -7.664483126109577E-14 1.659561456250103E-13 2.803398951704488E-9 -1.200712496647056E-11 8.523617846441226E-10 -4.812340707133558E-13
node 1.431339687704221E-14 -3.174195017618534E-14 -1.200712496647056E-11 4.281949519335772E-9 -4.269727532877897E-9 4.297932229584384E-11
peri 5.026456398698928E-15 -3.012088049441489E-14 8.523617846441226E-10 -4.269727532877897E-9 4.526305492820308E-9 -4.304423856304117E-11
i -2.269795682740587E-15 5.616424446046541E-15 -4.812340707133558E-13 4.297932229584384E-11 -4.304423856304117E-11 2.802280524689709E-11

Ephemeris | Orbit Diagram | Orbital Elements | Mission Design | Physical Parameters | Discovery Circumstances ]

Physical Parameter Table
Parameter Symbol Value Units Sigma Reference Notes
absolute magnitude H 17.3   n/a MPO440135  

215462 (2002 QF63)          Discovered 2002-Aug-17 by NEAT at Palomar
Reference: 20090607/Numbers.arcLast Updated: 2009-06-08
Ephemeris | Orbit Diagram | Orbital Elements | Mission Design | Physical Parameters | Discovery Circumstances ]
ABOUT SSD CREDITS/AWARDS PRIVACY/COPYRIGHT GLOSSARY LINKS
FirstGov 2019-Dec-16 13:43 UT
(server date/time)  
NASA Home Page
Site Manager:   Ryan S. Park
Webmaster  Alan B. Chamberlin